Weather History for Evanston, WY

Change the Weather History Date:

Monday, February 25, 2013

  Actual Average Record
Temperature  
Mean Temperature 16 °F 25 °F  
Max Temperature 27 °F 33 °F 44 °F (1999)
Min Temperature 4 °F 16 °F 0 °F (1997)
Degree Days  
Heating Degree Days 49 40  
Month to date heating degree days 1096 1058  
Since 1 July heating degree days 5451 5887  
Cooling Degree Days 0 0  
Month to date cooling degree days 0 0  
Year to date cooling degree days 0 0  
Moisture  
Dew Point 6 °F    
Average Humidity 63    
Maximum Humidity 88    
Minimum Humidity 38    
Precipitation  
Precipitation T in 0.02 in 0.12 in (2003)
Month to date precipitation 0.36 0.54  
Year to date precipitation 0.47 1.08  
Sea Level Pressure  
Sea Level Pressure 30.15 in    
Wind  
Wind Speed 12 mph (WSW)    
Max Wind Speed 20 mph    
Max Gust Speed 22 mph    
Visibility 10 miles    
Events Snow    
T = Trace of Precipitation, MM = Missing Value Source: NWS Daily Summary

Daily Weather History Graph

Daily Weather History Graph

Search for Another Location

Airport:

Trip Planner

Search our weather history database for the weather conditions in past years. The results will help you decide how hot, cold, wet, or windy it might be!

Date:

Astronomy

Feb. 25, 2013 Rise Set
Actual Time 7:04 AM MST 6:10 PM MST
Civil Twilight 6:36 AM MST 6:38 PM MST
Nautical Twilight 6:04 AM MST 7:10 PM MST
Astronomical Twilight 5:32 AM MST 7:42 PM MST
Moon 6:28 PM MST (2/25) 6:35 AM MST (2/25)
Length of Visible Light 12h 02m
Length of Day
11h 06m
Full, 100% of the Moon is Illuminated
Feb 25
Full
Feb 25
Full
Mar 4
Last Quarter
Mar 11
New
Mar 19
First Quarter

Hourly Weather History & Observations

Time (MST) Temp. Windchill Dew Point Humidity Pressure Visibility Wind Dir Wind Speed Gust Speed Precip Events Conditions
12:53 AM 7.0 °F -8.3 °F 3.0 °F 84% 30.32 in 10.0 mi SW 11.5 mph - N/A   Clear
1:53 AM 6.1 °F -8.7 °F 1.9 °F 83% 30.32 in 10.0 mi WSW 10.4 mph - N/A   Clear
2:53 AM 5.0 °F -9.1 °F 1.9 °F 87% 30.31 in 10.0 mi SW 9.2 mph - N/A   Clear
3:53 AM 3.9 °F -10.4 °F -0.0 °F 84% 30.31 in 10.0 mi WSW 9.2 mph - N/A   Clear
4:53 AM 5.0 °F -10.0 °F 1.0 °F 84% 30.30 in 10.0 mi WSW 10.4 mph - N/A   Clear
5:53 AM 5.0 °F -10.0 °F 1.0 °F 84% 30.31 in 10.0 mi WSW 10.4 mph - N/A   Clear
6:53 AM 3.9 °F -11.3 °F 1.0 °F 88% 30.31 in 10.0 mi WSW 10.4 mph - N/A   Clear
7:53 AM 7.0 °F -6.6 °F 3.0 °F 84% 30.29 in 10.0 mi SW 9.2 mph - N/A   Clear
8:53 AM 9.0 °F -3.2 °F 5.0 °F 84% 30.27 in 10.0 mi SW 8.1 mph - N/A   Clear
9:53 AM 12.0 °F -0.4 °F 7.0 °F 80% 30.28 in 10.0 mi SW 9.2 mph - N/A   Clear
10:53 AM 17.1 °F 4.3 °F 9.0 °F 71% 30.23 in 10.0 mi SW 11.5 mph - N/A   Clear
11:53 AM 21.9 °F 9.8 °F 9.0 °F 58% 30.18 in 10.0 mi SW 12.7 mph - N/A   Clear
12:48 PM 24.8 °F 14.0 °F 10.4 °F 54% 29.98 in 2.0 mi WSW 11.5 mph - N/A   Haze
12:53 PM 25.0 °F 13.1 °F 10.0 °F 53% 30.14 in 10.0 mi WSW 13.8 mph - N/A   Clear
1:53 PM 26.1 °F 14.0 °F 3.9 °F 39% 30.10 in 10.0 mi WSW 15.0 mph - N/A   Clear
2:53 PM 27.0 °F 14.3 °F 6.1 °F 41% 30.08 in 10.0 mi West 17.3 mph - N/A   Clear
3:53 PM 26.1 °F 13.6 °F 6.1 °F 43% 30.08 in 10.0 mi West 16.1 mph - N/A   Mostly Cloudy
4:53 PM 26.1 °F 14.5 °F 3.9 °F 39% 30.06 in 10.0 mi West 13.8 mph - N/A   Partly Cloudy
5:53 PM 24.1 °F 12.0 °F 8.1 °F 51% 30.07 in 10.0 mi WSW 13.8 mph - N/A   Overcast
6:53 PM 23.0 °F 10.1 °F 5.0 °F 46% 30.12 in 10.0 mi West 15.0 mph - N/A   Overcast
7:53 PM 18.0 °F 3.1 °F 7.0 °F 62% 30.12 in 10.0 mi WSW 16.1 mph - N/A   Overcast
8:53 PM 16.0 °F 6.3 °F 7.0 °F 68% 30.10 in 10.0 mi SW 6.9 mph - N/A   Mostly Cloudy
9:39 PM 17.6 °F 4.3 °F 10.4 °F 73% 29.92 in 10.0 mi SW 12.7 mph - N/A   Mostly Cloudy
9:53 PM 16.0 °F 2.3 °F 10.0 °F 77% 30.10 in 10.0 mi SW 12.7 mph - N/A   Overcast
10:45 PM 17.6 °F 5.7 °F 10.4 °F 73% 29.93 in 10.0 mi WSW 10.4 mph - N/A   Overcast
10:53 PM 17.1 °F 4.3 °F 10.9 °F 77% 30.07 in 10.0 mi WSW 11.5 mph - N/A   Overcast
11:12 PM 17.6 °F 2.7 °F 10.4 °F 73% 29.93 in 10.0 mi West 16.1 mph - N/A   Overcast
11:53 PM 17.1 °F 2.0 °F 12.0 °F 81% 30.05 in 9.0 mi WSW 16.1 mph - 0.00 in Snow Light Snow